Flag for U.S.A. Weather past 2 weeks in Flagstaff, Arizona, U.S.A.

Now
55 °F

Clear.


Feels Like: 55 °F
Forecast: 51 / 74 °F
Wind: No wind

Location: Flagstaff Pulliam Airport

Current Time: Jul 7, 2015 at 10:24:59 PM

Latest Report: Jul 7, 2015 at 9:57 PM


Visibility: 10 mi

Pressure: 29.93 "Hg (23.28 "Hg at 2103m altitude)

Humidity: 96%

Dew point: 54 °F

Location of FlagstaffLocation

Historic Weather in Flagstaff — Graph

°F

Flagstaff temperature yesterday

Maximum temperature yesterday: 73 °F (at 10:57 AM)
Minimum temperature yesterday: 53 °F (at 11:57 PM)
Average temperature yesterday: 64 °F

Past Weeks' High & Low Weather Summary

 TemperatureHumidityPressure
High91 °F (Jun 26, 2:57 PM)100% (Jul 2, 5:57 AM)30.34 "Hg (Jul 2, 5:57 AM)
Low48 °F (Jul 7, 4:57 AM)9% (Jun 26, 2:57 PM)29.82 "Hg (Jul 3, 5:57 PM)
Average68 °F56%29.97 "Hg
* Reported Jun 22 8:57 PM — Jul 7 8:57 PM, Flagstaff, Weather by CustomWeather, © 2015

Note: Actual official high and low records may vary slightly from our data, if they occured in-between our weather recording intervals... More about our weather records

Advertising

Flagstaff weather history for previous 24 hours

 ConditionsComfort  
Time TempWeatherWind HumidityBarometerVisibility
8:57 PM
Tue, Jul 7
58 °FClear.3 mph87%29.93 "Hg10 mi
7:57 PM57 °FClear.3 mph96%29.95 "Hg10 mi
6:57 PM61 °FSunny.6 mph81%29.95 "Hg10 mi
5:57 PM60 °FSunny.8 mph80%30.00 "Hg10 mi
4:57 PM58 °FSunny.9 mph90%30.02 "Hg10 mi
3:57 PM55 °FThunderstorms. Cloudy.5 mph87%30.03 "Hg10 mi
2:57 PM60 °FThunderstorms. Mostly cloudy.13 mph78%30.03 "Hg7 mi
1:57 PM74 °FPassing clouds.13 mph40%29.95 "Hg10 mi
12:57 PM75 °FScattered clouds.6 mph36%29.96 "Hg10 mi
11:57 AM74 °FBroken clouds.9 mph38%29.99 "Hg10 mi
10:57 AM72 °FPassing clouds.9 mph40%29.99 "Hg10 mi
9:57 AM70 °FSunny.7 mph41%30.01 "Hg10 mi
8:57 AM70 °FSunny.8 mph42%30.00 "Hg10 mi
7:57 AM65 °FSunny.6 mph63%30.01 "Hg10 mi
6:57 AM58 °FSunny.No wind90%30.01 "Hg10 mi
5:57 AM50 °FSunny.No wind93%30.01 "Hg10 mi
4:57 AM48 °FClear.No wind93%30.01 "Hg10 mi
3:57 AM49 °FClear.No wind93%30.01 "Hg10 mi
2:57 AM49 °FClear.No wind93%30.03 "Hg10 mi
1:57 AM50 °FClear.No wind89%30.01 "Hg10 mi
12:57 AM52 °FClear.No wind89%30.01 "Hg10 mi
11:57 PM
Mon, Jul 6
53 °FClear.No wind89%30.02 "Hg10 mi
10:57 PM56 °FClear.No wind84%29.99 "Hg10 mi
Weather by CustomWeather, © 2015

See weather overviewHow to use our weather pages